| time (UTC) | temp F | wind direction | speed MPH | gust MPH | rain 1hr in | rain 24hr in | rain mn in | humidity % | barometer mb |
| 20260506061554 | 66 | 144 | 1.0 | 7.0 | 0.00 | 0.00 | 0.00 | 67 | 1013.5 |
| 20260506044552 | 62 | 126 | 0.0 | 2.0 | 0.00 | 0.00 | 0.00 | 71 | 1013.4 |
| 20260506043049 | 63 | 126 | 0.0 | 2.0 | 0.00 | 0.00 | 0.00 | 70 | 1013.4 |
| 20260506041604 | 63 | 126 | 0.0 | 2.0 | 0.00 | 0.00 | 0.00 | 70 | 1013.5 |
| 20260506040054 | 63 | 0 | 0.0 | 2.0 | 0.00 | 0.00 | 0.00 | 69 | 1013.3 |
| 20260506034556 | 64 | 0 | 0.0 | 2.0 | 0.00 | 0.00 | 0.00 | 66 | 1013.2 |
| 20260506033054 | 65 | 0 | 0.0 | 0.0 | 0.00 | 0.00 | 0.00 | 64 | 1013.3 |
| 20260506031553 | 65 | 0 | 0.0 | 0.0 | 0.00 | 0.00 | 0.00 | 64 | 1013.4 |
| 20260506030052 | 65 | 0 | 0.0 | 2.0 | 0.00 | 0.00 | 0.00 | 62 | 1013.6 |
| 20260506024552 | 66 | 126 | 0.0 | 2.0 | 0.00 | 0.00 | 0.00 | 62 | 1013.6 |
| 20260506023104 | 67 | 0 | 0.0 | 1.0 | 0.00 | 0.00 | 0.00 | 59 | 1013.5 |
| 20260506021612 | 68 | 0 | 0.0 | 2.0 | 0.00 | 0.00 | 0.00 | 55 | 1013.1 |
| 20260506020053 | 70 | 126 | 0.0 | 2.0 | 0.00 | 0.00 | 0.00 | 53 | 1013.3 |
| 20260506014553 | 71 | 126 | 0.0 | 2.0 | 0.00 | 0.00 | 0.00 | 52 | 1013.1 |
| 20260506013101 | 72 | 163 | 0.0 | 3.0 | 0.00 | 0.00 | 0.00 | 49 | 1013.2 |
| 20260506011614 | 72 | 196 | 2.0 | 6.0 | 0.00 | 0.00 | 0.00 | 48 | 1013.3 |
| 20260506010057 | 73 | 207 | 2.0 | 4.0 | 0.00 | 0.00 | 0.00 | 47 | 1013.2 |
| 20260506004556 | 73 | 210 | 2.0 | 7.0 | 0.00 | 0.00 | 0.00 | 46 | 1013.0 |
| 20260506003055 | 73 | 175 | 2.0 | 5.0 | 0.00 | 0.00 | 0.00 | 46 | 1013.0 |
| 20260506001557 | 74 | 189 | 1.0 | 4.0 | 0.00 | 0.00 | 0.00 | 45 | 1013.0 |
| 20260506000057 | 74 | 202 | 2.0 | 6.0 | 0.00 | 0.00 | 0.00 | 44 | 1013.1 |
| 20260505234555 | 75 | 187 | 3.0 | 7.0 | 0.00 | 0.00 | 0.00 | 43 | 1013.3 |
| 20260505233106 | 75 | 180 | 4.0 | 11.0 | 0.00 | 0.00 | 0.00 | 42 | 1013.0 |
| 20260505231612 | 76 | 201 | 3.0 | 12.0 | 0.00 | 0.00 | 0.00 | 40 | 1013.0 |
| 20260505230053 | 76 | 156 | 4.0 | 12.0 | 0.00 | 0.00 | 0.00 | 41 | 1013.1 |
| 20260505224555 | 77 | 156 | 5.0 | 13.0 | 0.00 | 0.00 | 0.00 | 40 | 1013.1 |
| 20260505223053 | 77 | 186 | 5.0 | 10.0 | 0.00 | 0.00 | 0.00 | 40 | 1013.1 |
| 20260505221552 | 78 | 160 | 4.0 | 12.0 | 0.00 | 0.00 | 0.00 | 39 | 1013.2 |
| 20260505220059 | 78 | 209 | 6.0 | 11.0 | 0.00 | 0.00 | 0.00 | 38 | 1013.3 |
| 20260505214556 | 78 | 175 | 3.0 | 11.0 | 0.00 | 0.00 | 0.00 | 39 | 1013.3 |
| 20260505213052 | 78 | 238 | 4.0 | 14.0 | 0.00 | 0.00 | 0.00 | 37 | 1013.2 |
| 20260505211549 | 79 | 205 | 4.0 | 9.0 | 0.00 | 0.00 | 0.00 | 38 | 1013.3 |
| 20260505210051 | 77 | 213 | 7.0 | 12.0 | 0.00 | 0.00 | 0.00 | 39 | 1013.3 |
| 20260505204553 | 76 | 232 | 5.0 | 13.0 | 0.00 | 0.00 | 0.00 | 39 | 1013.6 |
| 20260505203110 | 77 | 134 | 5.0 | 13.0 | 0.00 | 0.00 | 0.00 | 38 | 1013.5 |
| 20260505201600 | 77 | 188 | 4.0 | 12.0 | 0.00 | 0.00 | 0.00 | 38 | 1013.6 |
| 20260505200053 | 77 | 164 | 5.0 | 12.0 | 0.00 | 0.00 | 0.00 | 39 | 1013.9 |
| 20260505194613 | 77 | 192 | 4.0 | 13.0 | 0.00 | 0.00 | 0.00 | 39 | 1014.3 |
| 20260505193052 | 76 | 322 | 6.0 | 14.0 | 0.00 | 0.00 | 0.00 | 39 | 1014.8 |
| 20260505191600 | 76 | 185 | 6.0 | 14.0 | 0.00 | 0.00 | 0.00 | 41 | 1014.9 |
| 20260505190048 | 76 | 295 | 2.0 | 11.0 | 0.00 | 0.00 | 0.00 | 42 | 1015.1 |
| 20260505184548 | 75 | 159 | 7.0 | 14.0 | 0.00 | 0.00 | 0.00 | 40 | 1015.2 |
| 20260505183053 | 76 | 274 | 6.0 | 17.0 | 0.00 | 0.00 | 0.00 | 39 | 1015.3 |
| 20260505181554 | 75 | 223 | 6.0 | 19.0 | 0.00 | 0.00 | 0.00 | 35 | 1015.4 |
| 20260505180100 | 75 | 153 | 7.0 | 16.0 | 0.00 | 0.00 | 0.00 | 38 | 1015.7 |
| 20260505174552 | 75 | 288 | 6.0 | 12.0 | 0.00 | 0.00 | 0.00 | 40 | 1016.2 |
| 20260505173056 | 75 | 145 | 7.0 | 17.0 | 0.00 | 0.00 | 0.00 | 41 | 1016.2 |
| 20260505171554 | 74 | 263 | 5.0 | 13.0 | 0.00 | 0.00 | 0.00 | 40 | 1016.1 |
| 20260505170109 | 74 | 279 | 5.0 | 9.0 | 0.00 | 0.00 | 0.00 | 47 | 1015.9 |
| 20260505164553 | 72 | 189 | 5.0 | 12.0 | 0.00 | 0.00 | 0.00 | 46 | 1016.1 |
| 20260505163049 | 73 | 295 | 3.0 | 12.0 | 0.00 | 0.00 | 0.00 | 46 | 1016.3 |
| 20260505161613 | 72 | 162 | 5.0 | 12.0 | 0.00 | 0.00 | 0.00 | 50 | 1016.4 |
| 20260505153103 | 71 | 164 | 4.0 | 10.0 | 0.00 | 0.00 | 0.00 | 53 | 1016.6 |
| 20260505151605 | 70 | 238 | 3.0 | 10.0 | 0.00 | 0.00 | 0.00 | 51 | 1017.1 |
| 20260505124557 | 59 | 0 | 0.0 | 2.0 | 0.00 | 0.00 | 0.00 | 72 | 1016.3 |
| 20260505123057 | 58 | 169 | 1.0 | 2.0 | 0.00 | 0.00 | 0.00 | 72 | 1016.2 |
| 20260505121612 | 56 | 0 | 0.0 | 2.0 | 0.00 | 0.00 | 0.00 | 75 | 1016.2 |
| 20260505120056 | 54 | 229 | 0.0 | 1.0 | 0.00 | 0.00 | 0.00 | 83 | 1016.1 |
| 20260505114552 | 51 | 0 | 0.0 | 2.0 | 0.00 | 0.00 | 0.00 | 87 | 1015.8 |
| 20260505113049 | 50 | 0 | 0.0 | 2.0 | 0.00 | 0.00 | 0.00 | 87 | 1015.9 |
| 20260505111547 | 50 | 0 | 0.0 | 2.0 | 0.00 | 0.00 | 0.00 | 85 | 1015.9 |
| 20260505101555 | 51 | 95 | 0.0 | 2.0 | 0.00 | 0.00 | 0.00 | 82 | 1015.5 |
| 20260505100050 | 51 | 0 | 0.0 | 2.0 | 0.00 | 0.00 | 0.00 | 81 | 1015.4 |
| 20260505094549 | 51 | 0 | 0.0 | 2.0 | 0.00 | 0.00 | 0.00 | 81 | 1015.5 |
| 20260505093048 | 51 | 0 | 0.0 | 2.0 | 0.00 | 0.00 | 0.00 | 81 | 1015.5 |
| 20260505091548 | 51 | 0 | 0.0 | 2.0 | 0.00 | 0.00 | 0.00 | 81 | 1015.5 |
| 20260505090100 | 51 | 95 | 0.0 | 2.0 | 0.00 | 0.00 | 0.00 | 81 | 1015.3 |
| 20260505084552 | 51 | 0 | 0.0 | 2.0 | 0.00 | 0.01 | 0.00 | 81 | 1015.3 |
| 20260505083058 | 50 | 0 | 0.0 | 2.0 | 0.00 | 0.01 | 0.00 | 81 | 1015.0 |
| 20260505081549 | 50 | 0 | 0.0 | 2.0 | 0.00 | 0.01 | 0.00 | 82 | 1014.9 |
| 20260505080054 | 50 | 0 | 0.0 | 2.0 | 0.00 | 0.01 | 0.00 | 83 | 1014.8 |
| 20260505074549 | 50 | 0 | 0.0 | 1.0 | 0.00 | 0.31 | 0.00 | 81 | 1014.7 |
| 20260505073048 | 51 | 0 | 0.0 | 2.0 | 0.00 | 0.31 | 0.00 | 81 | 1014.6 |
| 20260505071547 | 51 | 95 | 0.0 | 2.0 | 0.00 | 0.31 | 0.00 | 79 | 1014.6 |